Flag for Liberia Weather past 2 weeks in Kakata, Liberia

Now
86 °F

Partly sunny.


Feels Like: 97 °F
Forecast: 74 / 89 °F
Wind: 7 mph from West

Location: Roberts Field


UV Index: 10 (Very high)

Visibility: N/A


Pressure: 29.86 "Hg

Humidity: 75%

Dew point: 77 °F

Location of KakataLocation

Historic Weather in Kakata

°F

Kakata temperature yesterday

Maximum temperature yesterday: 90 °F (at 12:30 PM)
Minimum temperature yesterday: 77 °F (at 1:00 AM)
Average temperature yesterday: 83 °F

Past Weeks' High & Low Weather Summary

 TemperatureHumidityPressure
High91 °F (Apr 5, 3:00 PM)100% (Apr 3, 1:30 AM)29.98 "Hg (Apr 3, 1:30 AM)
Low70 °F (Apr 14, 5:00 AM)46% (Apr 13, 12:00 PM)29.74 "Hg (Apr 16, 5:00 PM)
Average81 °F81%29.87 "Hg
* Reported Apr 2 9:00 AM — Apr 17 9:00 AM, Kakata, Weather by CustomWeather, © 2014

Note: Actual official high and low records may vary slightly from our data, if they occured in-between our weather recording intervals... More about our weather records

Advertising

Historic Weather Conditions — Data for Previous 24 hours

 ConditionsComfort  
Time TempWeatherWind HumidityBarometerVisibility
9:00 AM
Apr 17
84 °FPartly sunny.3 mph84%29.86 "HgN/A
8:30 AM82 °FScattered clouds.5 mph89%29.83 "HgN/A
8:00 AM81 °FScattered clouds.No wind84%29.83 "HgN/A
7:30 AM79 °FPassing clouds.No wind94%29.83 "HgN/A
7:00 AM77 °FPassing clouds.No wind100%29.80 "HgN/A
6:30 AM77 °FPassing clouds.No wind94%29.80 "HgN/A
5:00 AM77 °FPassing clouds.No wind94%29.83 "HgN/A
4:00 AM77 °FPassing clouds.No wind94%29.83 "HgN/A
2:00 AM79 °FPassing clouds.No wind94%29.83 "HgN/A
1:30 AM79 °FPartly cloudy.No wind94%29.83 "HgN/A
1:00 AM79 °FPartly cloudy.No wind94%29.83 "HgN/A
12:30 AM79 °FPassing clouds.No wind94%29.86 "HgN/A
12:00 AM79 °FPassing clouds.No wind94%29.86 "HgN/A
11:30 PM
Apr 16
79 °FPassing clouds.6 mph94%29.86 "HgN/A
11:00 PM79 °FPassing clouds.6 mph94%29.89 "HgN/A
10:30 PM81 °FPassing clouds.No wind89%29.86 "HgN/A
10:00 PM81 °FPassing clouds.No wind89%29.86 "HgN/A
9:00 PM81 °FPartly cloudy.No wind89%29.83 "HgN/A
8:30 PM81 °FPartly cloudy.No wind89%29.83 "HgN/A
8:00 PM81 °FPartly cloudy.No wind89%29.80 "HgN/A
7:30 PM82 °FBroken clouds.No wind84%29.80 "HgN/A
7:00 PM82 °FBroken clouds.3 mph84%29.77 "HgN/A
6:30 PM84 °FPartly sunny.12 mph79%29.77 "HgN/A
6:00 PM84 °FPartly sunny.8 mph79%29.77 "HgN/A
5:30 PM84 °FPartly sunny.12 mph79%29.74 "HgN/A
5:00 PM86 °FPartly sunny.9 mph75%29.74 "HgN/A
4:30 PM86 °FPartly sunny.14 mph75%29.77 "HgN/A
4:00 PM88 °FPartly sunny.13 mph70%29.77 "HgN/A
3:30 PM88 °FPartly sunny.7 mph70%29.77 "HgN/A
3:00 PM88 °FPartly sunny.14 mph70%29.77 "HgN/A
2:30 PM88 °FPartly sunny.12 mph66%29.80 "HgN/A
2:00 PM90 °FPartly sunny.14 mph67%29.80 "HgN/A
1:30 PM90 °FPartly sunny.13 mph67%29.80 "HgN/A
1:00 PM88 °FPartly sunny.15 mph70%29.83 "HgN/A
12:30 PM90 °FPartly sunny.13 mph67%29.86 "HgN/A
12:00 PM88 °FPartly sunny.14 mph75%29.86 "HgN/A
11:30 AM88 °FPartly sunny.10 mph75%29.86 "HgN/A
11:00 AM88 °FPartly sunny.10 mph70%29.86 "HgN/A
10:30 AM86 °FPartly sunny.7 mph70%29.89 "HgN/A
10:00 AM86 °FPartly sunny.8 mph75%29.89 "HgN/A
Weather by CustomWeather, © 2014

See weather overview